| time (UTC) | temp F | wind direction | speed knots | gust knots | rain 1hr in | rain 24hr in | rain mn in | humidity % | barometer mb |
| 20260906023554 | 47 | 318 | 0.9 | 0.9 | 0.00 | 0.00 | 0.00 | 70 | 1027.2 |
| 20260906023048 | 47 | 0 | 0.0 | 0.9 | 0.00 | 0.00 | 0.00 | 69 | 1027.1 |
| 20260906022541 | 47 | 126 | 0.0 | 0.9 | 0.00 | 0.00 | 0.00 | 69 | 1027.1 |
| 20260906022035 | 47 | 135 | 0.0 | 0.0 | 0.00 | 0.00 | 0.00 | 69 | 1027.1 |
| 20260906021530 | 47 | 135 | 0.0 | 0.9 | 0.00 | 0.00 | 0.00 | 69 | 1027.1 |
| 20260906021024 | 47 | 135 | 0.0 | 0.9 | 0.00 | 0.00 | 0.00 | 69 | 1027.0 |
| 20260906020518 | 47 | 223 | 0.0 | 1.7 | 0.00 | 0.00 | 0.00 | 69 | 1026.9 |
| 20260906020010 | 47 | 225 | 0.0 | 0.9 | 0.00 | 0.00 | 0.00 | 69 | 1026.9 |
| 20260906015506 | 47 | 226 | 0.0 | 0.9 | 0.00 | 0.00 | 0.00 | 69 | 1026.9 |
| 20260906015504 | 47 | 226 | 0.0 | 0.9 | 0.00 | 0.00 | 0.00 | 69 | 1026.9 |
| 20260906014959 | 47 | 90 | 0.0 | 0.9 | 0.00 | 0.00 | 0.00 | 69 | 1026.9 |
| 20260906014452 | 48 | 120 | 0.9 | 1.7 | 0.00 | 0.00 | 0.00 | 69 | 1026.9 |
| 20260906013946 | 48 | 176 | 0.9 | 0.9 | 0.00 | 0.00 | 0.00 | 68 | 1026.9 |
| 20260906013440 | 48 | 180 | 0.0 | 0.9 | 0.00 | 0.00 | 0.00 | 68 | 1026.8 |
| 20260906012934 | 48 | 195 | 0.0 | 0.0 | 0.00 | 0.00 | 0.00 | 68 | 1026.8 |
| 20260906012427 | 48 | 315 | 0.0 | 0.0 | 0.00 | 0.00 | 0.00 | 68 | 1026.7 |
| 20260906011922 | 48 | 315 | 0.9 | 0.9 | 0.00 | 0.00 | 0.00 | 68 | 1026.8 |
| 20260906011416 | 48 | 315 | 0.0 | 0.9 | 0.00 | 0.00 | 0.00 | 68 | 1026.7 |
| 20260906010910 | 48 | 315 | 0.0 | 0.9 | 0.00 | 0.00 | 0.00 | 68 | 1026.6 |
| 20260906010404 | 48 | 180 | 0.0 | 0.9 | 0.00 | 0.00 | 0.00 | 67 | 1026.6 |
| 20260906005858 | 49 | 180 | 0.0 | 0.0 | 0.00 | 0.00 | 0.00 | 67 | 1026.5 |
| 20260906005351 | 49 | 180 | 0.0 | 0.0 | 0.00 | 0.00 | 0.00 | 67 | 1026.5 |
| 20260906004845 | 49 | 180 | 0.0 | 0.9 | 0.00 | 0.00 | 0.00 | 67 | 1026.6 |
| 20260906004338 | 49 | 114 | 0.0 | 0.9 | 0.00 | 0.00 | 0.00 | 67 | 1026.5 |
| 20260906003833 | 49 | 127 | 0.0 | 0.9 | 0.00 | 0.00 | 0.00 | 67 | 1026.5 |
| 20260906003326 | 49 | 359 | 0.0 | 0.9 | 0.00 | 0.00 | 0.00 | 67 | 1026.6 |
| 20260906002821 | 50 | 180 | 0.9 | 0.9 | 0.00 | 0.00 | 0.00 | 68 | 1026.5 |
| 20260906002315 | 50 | 180 | 0.9 | 0.9 | 0.00 | 0.00 | 0.00 | 68 | 1026.5 |
| 20260906001808 | 49 | 170 | 0.9 | 0.9 | 0.00 | 0.00 | 0.00 | 68 | 1026.4 |
| 20260906001302 | 49 | 130 | 0.0 | 0.0 | 0.00 | 0.00 | 0.00 | 66 | 1026.4 |
| 20260906000756 | 49 | 90 | 0.0 | 0.0 | 0.00 | 0.00 | 0.00 | 66 | 1026.3 |
| 20260906000249 | 50 | 113 | 0.0 | 0.9 | 0.00 | 0.00 | 0.00 | 66 | 1026.4 |
| 20260905235744 | 50 | 142 | 0.0 | 0.9 | 0.00 | 0.00 | 0.00 | 66 | 1026.3 |
| 20260905235238 | 50 | 270 | 0.0 | 0.9 | 0.00 | 0.00 | 0.00 | 66 | 1026.3 |
| 20260905234731 | 50 | 270 | 0.0 | 0.0 | 0.00 | 0.00 | 0.00 | 66 | 1026.2 |
| 20260905234225 | 50 | 270 | 0.0 | 0.0 | 0.00 | 0.00 | 0.00 | 66 | 1026.1 |
| 20260905233213 | 50 | 45 | 0.0 | 0.0 | 0.00 | 0.00 | 0.00 | 66 | 1026.1 |
| 20260905232707 | 50 | 45 | 0.0 | 0.9 | 0.00 | 0.00 | 0.00 | 66 | 1026.1 |
| 20260905232200 | 50 | 45 | 0.9 | 1.7 | 0.00 | 0.00 | 0.00 | 67 | 1026.1 |
| 20260905231654 | 50 | 0 | 0.9 | 1.7 | 0.00 | 0.00 | 0.00 | 67 | 1026.1 |
| 20260905231148 | 50 | 289 | 0.9 | 1.7 | 0.00 | 0.00 | 0.00 | 67 | 1026.0 |
| 20260905230641 | 50 | 294 | 0.9 | 1.7 | 0.00 | 0.00 | 0.00 | 66 | 1026.0 |
| 20260905230135 | 51 | 0 | 0.0 | 0.9 | 0.00 | 0.00 | 0.00 | 65 | 1026.0 |
| 20260905225630 | 51 | 0 | 0.9 | 0.9 | 0.00 | 0.00 | 0.00 | 66 | 1026.0 |
| 20260905225123 | 51 | 0 | 0.0 | 0.9 | 0.00 | 0.00 | 0.00 | 65 | 1025.9 |
| 20260905224618 | 51 | 356 | 0.0 | 0.9 | 0.00 | 0.00 | 0.00 | 65 | 1025.9 |
| 20260905224111 | 51 | 225 | 0.0 | 0.0 | 0.00 | 0.00 | 0.00 | 64 | 1025.9 |
| 20260905223605 | 52 | 167 | 0.0 | 0.9 | 0.00 | 0.00 | 0.00 | 64 | 1025.8 |
| 20260905223059 | 52 | 135 | 0.0 | 0.9 | 0.00 | 0.00 | 0.00 | 64 | 1025.7 |
| 20260905222553 | 52 | 45 | 0.0 | 0.0 | 0.00 | 0.00 | 0.00 | 63 | 1025.8 |
| 20260905222047 | 52 | 61 | 0.9 | 1.7 | 0.00 | 0.00 | 0.00 | 63 | 1025.8 |
| 20260905221541 | 52 | 196 | 0.9 | 1.7 | 0.00 | 0.00 | 0.00 | 63 | 1025.7 |
| 20260905221034 | 53 | 225 | 0.0 | 0.9 | 0.00 | 0.00 | 0.00 | 64 | 1025.7 |
| 20260905220022 | 53 | 193 | 0.9 | 0.9 | 0.00 | 0.00 | 0.00 | 64 | 1025.7 |
| 20260905215516 | 53 | 228 | 0.9 | 0.9 | 0.00 | 0.00 | 0.00 | 63 | 1025.7 |
| 20260905215010 | 53 | 292 | 0.9 | 1.7 | 0.00 | 0.00 | 0.00 | 63 | 1025.7 |
| 20260905214503 | 53 | 309 | 1.7 | 2.6 | 0.00 | 0.00 | 0.00 | 63 | 1025.7 |
| 20260905213958 | 53 | 271 | 0.9 | 0.9 | 0.00 | 0.00 | 0.00 | 63 | 1025.7 |
| 20260905213451 | 53 | 311 | 0.9 | 0.9 | 0.00 | 0.00 | 0.00 | 63 | 1025.7 |
| 20260905212945 | 53 | 301 | 1.7 | 2.6 | 0.00 | 0.00 | 0.00 | 62 | 1025.5 |
| 20260905212439 | 53 | 294 | 1.7 | 1.7 | 0.00 | 0.00 | 0.00 | 61 | 1025.5 |
| 20260905211933 | 54 | 352 | 0.9 | 0.9 | 0.00 | 0.00 | 0.00 | 61 | 1025.5 |
| 20260905211427 | 54 | 268 | 0.0 | 0.0 | 0.00 | 0.00 | 0.00 | 60 | 1025.4 |
| 20260905210920 | 54 | 349 | 0.9 | 0.9 | 0.00 | 0.00 | 0.00 | 60 | 1025.4 |
| 20260905210414 | 55 | 11 | 0.9 | 1.7 | 0.00 | 0.00 | 0.00 | 59 | 1025.3 |
| 20260905205908 | 55 | 180 | 0.9 | 0.9 | 0.00 | 0.00 | 0.00 | 60 | 1025.2 |
| 20260905205401 | 55 | 180 | 0.9 | 1.7 | 0.00 | 0.00 | 0.00 | 59 | 1025.2 |
| 20260905204856 | 55 | 180 | 0.9 | 0.9 | 0.00 | 0.00 | 0.00 | 59 | 1025.2 |
| 20260905204350 | 55 | 180 | 0.9 | 1.7 | 0.00 | 0.00 | 0.00 | 60 | 1025.1 |
| 20260905203844 | 55 | 180 | 0.9 | 0.9 | 0.00 | 0.00 | 0.00 | 59 | 1025.1 |
| 20260905202831 | 56 | 270 | 0.0 | 0.9 | 0.00 | 0.00 | 0.00 | 55 | 1025.0 |
| 20260905202325 | 56 | 349 | 0.0 | 0.9 | 0.00 | 0.00 | 0.00 | 55 | 1025.0 |
| 20260905201819 | 57 | 0 | 0.0 | 0.0 | 0.00 | 0.00 | 0.00 | 55 | 1024.9 |
| 20260905201312 | 57 | 0 | 0.0 | 0.9 | 0.00 | 0.00 | 0.00 | 54 | 1024.8 |
| 20260905200807 | 58 | 315 | 0.9 | 1.7 | 0.00 | 0.00 | 0.00 | 54 | 1024.8 |
| 20260905200300 | 58 | 315 | 1.7 | 2.6 | 0.00 | 0.00 | 0.00 | 54 | 1024.7 |
| 20260905195755 | 58 | 313 | 2.6 | 2.6 | 0.00 | 0.00 | 0.00 | 53 | 1024.7 |
| 20260905195248 | 59 | 301 | 1.7 | 2.6 | 0.00 | 0.00 | 0.00 | 52 | 1024.6 |
| 20260905194742 | 59 | 316 | 2.6 | 2.6 | 0.00 | 0.00 | 0.00 | 52 | 1024.6 |
| 20260905194236 | 59 | 301 | 1.7 | 2.6 | 0.00 | 0.00 | 0.00 | 51 | 1024.6 |
| 20260905193730 | 60 | 318 | 0.9 | 0.9 | 0.00 | 0.00 | 0.00 | 52 | 1024.5 |
| 20260905193223 | 60 | 299 | 1.7 | 2.6 | 0.00 | 0.00 | 0.00 | 52 | 1024.4 |
| 20260905192717 | 61 | 334 | 1.7 | 2.6 | 0.00 | 0.00 | 0.00 | 51 | 1024.3 |
| 20260905192212 | 61 | 331 | 1.7 | 2.6 | 0.00 | 0.00 | 0.00 | 50 | 1024.2 |
| 20260905191158 | 62 | 324 | 2.6 | 3.5 | 0.00 | 0.00 | 0.00 | 48 | 1024.3 |
| 20260905190653 | 62 | 322 | 2.6 | 2.6 | 0.00 | 0.00 | 0.00 | 47 | 1024.2 |
| 20260905190146 | 63 | 318 | 2.6 | 2.6 | 0.00 | 0.00 | 0.00 | 46 | 1024.1 |
| 20260905185641 | 63 | 318 | 3.5 | 4.3 | 0.00 | 0.00 | 0.00 | 46 | 1024.0 |
| 20260905185135 | 63 | 322 | 4.3 | 5.2 | 0.00 | 0.00 | 0.00 | 45 | 1023.9 |
| 20260905184629 | 64 | 328 | 3.5 | 4.3 | 0.00 | 0.00 | 0.00 | 45 | 1023.9 |
| 20260905184123 | 64 | 328 | 3.5 | 4.3 | 0.00 | 0.00 | 0.00 | 44 | 1023.8 |
| 20260905184121 | 64 | 328 | 3.5 | 4.3 | 0.00 | 0.00 | 0.00 | 44 | 1023.8 |
| 20260905183616 | 64 | 320 | 3.5 | 4.3 | 0.00 | 0.00 | 0.00 | 44 | 1023.8 |
| 20260905183110 | 65 | 324 | 4.3 | 5.2 | 0.00 | 0.00 | 0.00 | 43 | 1023.7 |
| 20260905182603 | 65 | 332 | 3.5 | 7.0 | 0.00 | 0.00 | 0.00 | 43 | 1023.6 |
| 20260905182057 | 65 | 323 | 4.3 | 6.1 | 0.00 | 0.00 | 0.00 | 42 | 1023.5 |
| 20260905181551 | 66 | 335 | 4.3 | 6.1 | 0.00 | 0.00 | 0.00 | 42 | 1023.5 |
| 20260905181044 | 66 | 320 | 4.3 | 6.1 | 0.00 | 0.00 | 0.00 | 42 | 1023.4 |
| 20260905180538 | 66 | 328 | 4.3 | 6.1 | 0.00 | 0.00 | 0.00 | 41 | 1023.4 |
| 20260905180033 | 67 | 321 | 5.2 | 7.0 | 0.00 | 0.00 | 0.00 | 40 | 1023.3 |
| 20260905175527 | 67 | 335 | 5.2 | 7.8 | 0.00 | 0.00 | 0.00 | 40 | 1023.3 |
| 20260905175020 | 68 | 331 | 5.2 | 7.0 | 0.00 | 0.00 | 0.00 | 40 | 1023.1 |
| 20260905174514 | 68 | 318 | 4.3 | 6.1 | 0.00 | 0.00 | 0.00 | 40 | 1023.0 |
| 20260905174007 | 69 | 319 | 5.2 | 7.0 | 0.00 | 0.00 | 0.00 | 39 | 1022.9 |
| 20260905173502 | 69 | 318 | 6.1 | 8.7 | 0.00 | 0.00 | 0.00 | 38 | 1022.8 |
| 20260905172956 | 70 | 314 | 6.1 | 8.7 | 0.00 | 0.00 | 0.00 | 38 | 1022.8 |
| 20260905172450 | 70 | 332 | 7.0 | 11.3 | 0.00 | 0.00 | 0.00 | 38 | 1022.7 |
| 20260905171943 | 71 | 336 | 5.2 | 7.0 | 0.00 | 0.00 | 0.00 | 37 | 1022.6 |
| 20260905171437 | 71 | 324 | 7.0 | 8.7 | 0.00 | 0.00 | 0.00 | 36 | 1022.5 |
| 20260905170931 | 72 | 321 | 6.1 | 8.7 | 0.00 | 0.00 | 0.00 | 35 | 1022.5 |
| 20260905170425 | 72 | 312 | 6.1 | 8.7 | 0.00 | 0.00 | 0.00 | 34 | 1022.4 |
| 20260905165918 | 73 | 315 | 7.8 | 13.9 | 0.00 | 0.00 | 0.00 | 33 | 1022.2 |
| 20260905165412 | 74 | 318 | 7.8 | 9.6 | 0.00 | 0.00 | 0.00 | 33 | 1022.1 |
| 20260905164907 | 74 | 307 | 6.1 | 9.6 | 0.00 | 0.00 | 0.00 | 33 | 1022.1 |
| 20260905164905 | 74 | 307 | 6.1 | 9.6 | 0.00 | 0.00 | 0.00 | 33 | 1022.1 |
| 20260905164400 | 76 | 317 | 6.1 | 7.8 | 0.00 | 0.00 | 0.00 | 32 | 1022.0 |
| 20260905164359 | 76 | 317 | 6.1 | 7.8 | 0.00 | 0.00 | 0.00 | 32 | 1022.0 |
| 20260905163854 | 76 | 312 | 6.1 | 7.8 | 0.00 | 0.00 | 0.00 | 31 | 1021.8 |
| 20260905163348 | 77 | 311 | 7.0 | 11.3 | 0.00 | 0.00 | 0.00 | 30 | 1021.7 |
| 20260905162841 | 77 | 319 | 7.0 | 11.3 | 0.00 | 0.00 | 0.00 | 32 | 1021.7 |
| 20260905162336 | 77 | 314 | 7.0 | 9.6 | 0.00 | 0.00 | 0.00 | 31 | 1021.5 |
| 20260905162334 | 77 | 314 | 7.0 | 9.6 | 0.00 | 0.00 | 0.00 | 31 | 1021.5 |
| 20260905161828 | 78 | 298 | 8.7 | 10.4 | 0.00 | 0.00 | 0.00 | 30 | 1021.3 |
| 20260905161323 | 78 | 298 | 7.0 | 9.6 | 0.00 | 0.00 | 0.00 | 31 | 1021.2 |
| 20260905160816 | 79 | 311 | 7.8 | 9.6 | 0.00 | 0.00 | 0.00 | 30 | 1021.2 |
| 20260905160311 | 79 | 308 | 7.0 | 10.4 | 0.00 | 0.00 | 0.00 | 30 | 1021.1 |
| 20260905155804 | 79 | 316 | 7.0 | 8.7 | 0.00 | 0.00 | 0.00 | 30 | 1021.1 |
| 20260905155258 | 79 | 310 | 7.8 | 10.4 | 0.00 | 0.00 | 0.00 | 30 | 1021.1 |
| 20260905154752 | 79 | 299 | 7.8 | 11.3 | 0.00 | 0.00 | 0.00 | 31 | 1021.0 |
| 20260905154246 | 80 | 312 | 7.8 | 11.3 | 0.00 | 0.00 | 0.00 | 29 | 1021.0 |
| 20260905153739 | 79 | 311 | 8.7 | 11.3 | 0.00 | 0.00 | 0.00 | 30 | 1020.9 |
| 20260905153234 | 79 | 313 | 8.7 | 10.4 | 0.00 | 0.00 | 0.00 | 30 | 1021.0 |
| 20260905153232 | 79 | 313 | 8.7 | 10.4 | 0.00 | 0.00 | 0.00 | 30 | 1021.0 |
| 20260905152726 | 78 | 318 | 7.8 | 9.6 | 0.00 | 0.00 | 0.00 | 31 | 1021.0 |
| 20260905152221 | 78 | 311 | 7.0 | 8.7 | 0.00 | 0.00 | 0.00 | 32 | 1021.1 |
| 20260905151715 | 78 | 318 | 7.0 | 10.4 | 0.00 | 0.00 | 0.00 | 30 | 1021.0 |
| 20260905151209 | 80 | 307 | 7.0 | 8.7 | 0.00 | 0.00 | 0.00 | 29 | 1020.8 |
| 20260905150703 | 80 | 310 | 7.8 | 12.2 | 0.00 | 0.00 | 0.00 | 28 | 1020.8 |
| 20260905150157 | 82 | 311 | 6.1 | 8.7 | 0.00 | 0.00 | 0.00 | 29 | 1020.8 |
| 20260905150155 | 82 | 311 | 6.1 | 8.7 | 0.00 | 0.00 | 0.00 | 29 | 1020.8 |
| 20260905145650 | 81 | 297 | 7.0 | 8.7 | 0.00 | 0.00 | 0.00 | 29 | 1020.7 |
| 20260905145143 | 83 | 310 | 7.8 | 13.0 | 0.00 | 0.00 | 0.00 | 29 | 1020.7 |
| 20260905144637 | 83 | 320 | 7.8 | 11.3 | 0.00 | 0.00 | 0.00 | 27 | 1020.7 |
| 20260905144132 | 81 | 309 | 7.8 | 11.3 | 0.00 | 0.00 | 0.00 | 29 | 1020.8 |
| 20260905143625 | 80 | 306 | 7.0 | 10.4 | 0.00 | 0.00 | 0.00 | 31 | 1020.8 |
| 20260905143120 | 79 | 308 | 7.0 | 9.6 | 0.00 | 0.00 | 0.00 | 31 | 1020.9 |
| 20260905143118 | 79 | 308 | 7.0 | 9.6 | 0.00 | 0.00 | 0.00 | 31 | 1020.9 |
| 20260905142107 | 81 | 311 | 8.7 | 12.2 | 0.00 | 0.00 | 0.00 | 29 | 1020.9 |
| 20260905141600 | 82 | 308 | 10.4 | 13.9 | 0.00 | 0.00 | 0.00 | 28 | 1020.9 |
| 20260905141054 | 84 | 306 | 8.7 | 11.3 | 0.00 | 0.00 | 0.00 | 26 | 1020.8 |
| 20260905140548 | 86 | 315 | 7.0 | 10.4 | 0.00 | 0.00 | 0.00 | 26 | 1020.8 |
| 20260905140042 | 85 | 310 | 9.6 | 12.2 | 0.00 | 0.00 | 0.00 | 26 | 1020.8 |
| 20260905135536 | 85 | 308 | 7.8 | 12.2 | 0.00 | 0.00 | 0.00 | 28 | 1020.9 |
| 20260905135029 | 86 | 305 | 6.1 | 9.6 | 0.00 | 0.00 | 0.00 | 27 | 1020.8 |
| 20260905134523 | 86 | 310 | 8.7 | 12.2 | 0.00 | 0.00 | 0.00 | 26 | 1020.9 |
| 20260905133511 | 89 | 305 | 7.0 | 11.3 | 0.00 | 0.00 | 0.00 | 25 | 1020.8 |
| 20260905133005 | 89 | 304 | 8.7 | 13.0 | 0.00 | 0.00 | 0.00 | 24 | 1020.9 |
| 20260905132459 | 89 | 307 | 10.4 | 15.6 | 0.00 | 0.00 | 0.00 | 25 | 1020.9 |
| 20260905131953 | 89 | 305 | 7.8 | 13.0 | 0.00 | 0.00 | 0.00 | 26 | 1021.0 |
| 20260905131445 | 88 | 302 | 9.6 | 13.0 | 0.00 | 0.00 | 0.00 | 25 | 1021.0 |
| 20260905130940 | 88 | 301 | 10.4 | 13.9 | 0.00 | 0.00 | 0.00 | 25 | 1020.7 |
| 20260905130434 | 88 | 301 | 10.4 | 13.9 | 0.00 | 0.00 | 0.00 | 25 | 1021.0 |
| 20260905125927 | 88 | 315 | 8.7 | 13.9 | 0.00 | 0.00 | 0.00 | 25 | 1021.0 |
| 20260905125422 | 87 | 314 | 9.6 | 13.9 | 0.00 | 0.00 | 0.00 | 26 | 1021.1 |
| 20260905124915 | 88 | 310 | 9.6 | 12.2 | 0.00 | 0.00 | 0.00 | 25 | 1021.0 |
| 20260905124409 | 88 | 305 | 7.8 | 10.4 | 0.00 | 0.00 | 0.00 | 27 | 1021.1 |
| 20260905123902 | 86 | 299 | 9.6 | 12.2 | 0.00 | 0.00 | 0.00 | 28 | 1021.2 |
| 20260905123356 | 85 | 314 | 9.6 | 12.2 | 0.00 | 0.00 | 0.00 | 27 | 1021.2 |
| 20260905122851 | 85 | 309 | 9.6 | 11.3 | 0.00 | 0.00 | 0.00 | 27 | 1021.1 |
| 20260905122344 | 85 | 305 | 9.6 | 13.0 | 0.00 | 0.00 | 0.00 | 28 | 1021.2 |
| 20260905121837 | 85 | 308 | 11.3 | 17.4 | 0.00 | 0.00 | 0.00 | 29 | 1021.2 |
| 20260905121332 | 83 | 306 | 10.4 | 14.8 | 0.00 | 0.00 | 0.00 | 30 | 1021.2 |
| 20260905120825 | 81 | 314 | 8.7 | 13.9 | 0.00 | 0.00 | 0.00 | 32 | 1021.4 |
| 20260905120319 | 84 | 311 | 8.7 | 11.3 | 0.00 | 0.00 | 0.00 | 30 | 1021.4 |
| 20260905115814 | 83 | 302 | 7.8 | 11.3 | 0.00 | 0.00 | 0.00 | 32 | 1021.5 |
| 20260905115812 | 83 | 302 | 7.8 | 11.3 | 0.00 | 0.00 | 0.00 | 32 | 1021.5 |
| 20260905115307 | 82 | 306 | 8.7 | 12.2 | 0.00 | 0.00 | 0.00 | 32 | 1021.4 |
| 20260905114801 | 83 | 314 | 10.4 | 14.8 | 0.00 | 0.00 | 0.00 | 30 | 1021.4 |
| 20260905114255 | 82 | 304 | 8.7 | 11.3 | 0.00 | 0.00 | 0.00 | 33 | 1021.5 |
| 20260905113749 | 82 | 299 | 7.0 | 11.3 | 0.00 | 0.00 | 0.00 | 34 | 1021.5 |
| 20260905113243 | 82 | 316 | 7.0 | 11.3 | 0.00 | 0.00 | 0.00 | 35 | 1021.6 |
| 20260905113241 | 82 | 316 | 7.0 | 11.3 | 0.00 | 0.00 | 0.00 | 35 | 1021.6 |
| 20260905112735 | 81 | 317 | 9.6 | 13.9 | 0.00 | 0.00 | 0.00 | 34 | 1021.7 |
| 20260905112230 | 80 | 300 | 7.8 | 11.3 | 0.00 | 0.00 | 0.00 | 35 | 1021.6 |
| 20260905111723 | 81 | 310 | 6.1 | 7.8 | 0.00 | 0.00 | 0.00 | 35 | 1021.7 |
| 20260905111218 | 81 | 305 | 7.0 | 10.4 | 0.00 | 0.00 | 0.00 | 35 | 1021.6 |
| 20260905110711 | 82 | 292 | 7.0 | 10.4 | 0.00 | 0.00 | 0.00 | 36 | 1021.7 |
| 20260905110205 | 81 | 309 | 7.8 | 11.3 | 0.00 | 0.00 | 0.00 | 35 | 1021.7 |
| 20260905105659 | 83 | 316 | 7.8 | 11.3 | 0.00 | 0.00 | 0.00 | 33 | 1021.7 |
| 20260905105153 | 83 | 303 | 7.8 | 13.0 | 0.00 | 0.00 | 0.00 | 34 | 1021.6 |
| 20260905104647 | 82 | 316 | 7.0 | 8.7 | 0.00 | 0.00 | 0.00 | 37 | 1021.7 |
| 20260905103634 | 79 | 306 | 7.0 | 14.8 | 0.00 | 0.00 | 0.00 | 37 | 1021.4 |
| 20260905103127 | 79 | 317 | 7.8 | 10.4 | 0.00 | 0.00 | 0.00 | 40 | 1021.9 |
| 20260905102621 | 78 | 301 | 7.8 | 10.4 | 0.00 | 0.00 | 0.00 | 42 | 1021.6 |
| 20260905102115 | 77 | 305 | 9.6 | 14.8 | 0.00 | 0.00 | 0.00 | 42 | 1021.6 |
| 20260905101609 | 76 | 307 | 6.1 | 9.6 | 0.00 | 0.00 | 0.00 | 41 | 1021.8 |
| 20260905101103 | 77 | 301 | 7.0 | 10.4 | 0.00 | 0.00 | 0.00 | 41 | 1022.0 |
| 20260905100556 | 77 | 311 | 7.8 | 10.4 | 0.00 | 0.00 | 0.00 | 43 | 1021.8 |
| 20260905100051 | 75 | 297 | 7.0 | 9.6 | 0.00 | 0.00 | 0.00 | 44 | 1021.9 |
| 20260905095544 | 74 | 275 | 5.2 | 7.8 | 0.00 | 0.00 | 0.00 | 46 | 1021.7 |
| 20260905095038 | 75 | 303 | 7.0 | 13.0 | 0.00 | 0.00 | 0.00 | 44 | 1021.9 |
| 20260905094531 | 75 | 313 | 6.1 | 8.7 | 0.00 | 0.00 | 0.00 | 47 | 1021.8 |
| 20260905094027 | 74 | 305 | 6.1 | 10.4 | 0.00 | 0.00 | 0.00 | 47 | 1021.8 |
| 20260905094025 | 74 | 305 | 6.1 | 10.4 | 0.00 | 0.00 | 0.00 | 47 | 1021.8 |
| 20260905093520 | 73 | 294 | 6.1 | 10.4 | 0.00 | 0.00 | 0.00 | 48 | 1021.9 |
| 20260905093014 | 72 | 295 | 7.0 | 9.6 | 0.00 | 0.00 | 0.00 | 49 | 1022.0 |
| 20260905092001 | 71 | 299 | 6.1 | 8.7 | 0.00 | 0.00 | 0.00 | 52 | 1022.0 |
| 20260905091454 | 71 | 293 | 7.0 | 13.0 | 0.00 | 0.00 | 0.00 | 53 | 1021.9 |
| 20260905090949 | 70 | 289 | 7.8 | 11.3 | 0.00 | 0.00 | 0.00 | 54 | 1021.6 |
| 20260905090443 | 68 | 285 | 7.0 | 10.4 | 0.00 | 0.00 | 0.00 | 57 | 1021.8 |
| 20260905085936 | 67 | 284 | 6.1 | 8.7 | 0.00 | 0.00 | 0.00 | 60 | 1022.0 |
| 20260905085429 | 66 | 294 | 7.0 | 11.3 | 0.00 | 0.00 | 0.00 | 63 | 1021.9 |
| 20260905084923 | 66 | 309 | 7.0 | 8.7 | 0.00 | 0.00 | 0.00 | 65 | 1021.9 |
| 20260905084417 | 65 | 294 | 6.1 | 9.6 | 0.00 | 0.00 | 0.00 | 66 | 1021.8 |
| 20260905083911 | 65 | 307 | 7.0 | 8.7 | 0.00 | 0.00 | 0.00 | 65 | 1022.0 |
| 20260905083405 | 64 | 304 | 7.8 | 9.6 | 0.00 | 0.00 | 0.00 | 65 | 1021.8 |
| 20260905082859 | 64 | 312 | 7.8 | 12.2 | 0.00 | 0.00 | 0.00 | 65 | 1021.9 |
| 20260905082353 | 64 | 309 | 7.0 | 10.4 | 0.00 | 0.00 | 0.00 | 68 | 1022.0 |
| 20260905081846 | 63 | 311 | 6.1 | 8.7 | 0.00 | 0.00 | 0.00 | 69 | 1021.9 |
| 20260905081341 | 63 | 314 | 7.0 | 8.7 | 0.00 | 0.00 | 0.00 | 70 | 1021.8 |
| 20260905080834 | 63 | 301 | 7.0 | 11.3 | 0.00 | 0.00 | 0.00 | 71 | 1021.6 |
| 20260905080329 | 63 | 305 | 7.0 | 9.6 | 0.00 | 0.00 | 0.00 | 72 | 1021.5 |
| 20260905080327 | 63 | 305 | 7.0 | 9.6 | 0.00 | 0.00 | 0.00 | 72 | 1021.5 |
| 20260905075822 | 62 | 297 | 6.1 | 11.3 | 0.00 | 0.00 | 0.00 | 72 | 1021.5 |
| 20260905075316 | 62 | 307 | 6.1 | 10.4 | 0.00 | 0.00 | 0.00 | 72 | 1021.7 |
| 20260905074809 | 61 | 298 | 6.1 | 9.6 | 0.00 | 0.00 | 0.00 | 74 | 1021.7 |
| 20260905074303 | 61 | 320 | 8.7 | 10.4 | 0.00 | 0.00 | 0.00 | 74 | 1021.5 |
| 20260905073757 | 61 | 311 | 7.8 | 10.4 | 0.00 | 0.00 | 0.00 | 75 | 1021.4 |
| 20260905073251 | 61 | 308 | 7.0 | 9.6 | 0.00 | 0.00 | 0.00 | 75 | 1021.5 |
| 20260905072745 | 61 | 306 | 5.2 | 7.8 | 0.00 | 0.00 | 0.00 | 75 | 1021.4 |
| 20260905072239 | 61 | 310 | 5.2 | 7.0 | 0.00 | 0.00 | 0.00 | 76 | 1021.5 |
| 20260905071732 | 60 | 306 | 5.2 | 8.7 | 0.00 | 0.00 | 0.00 | 75 | 1021.5 |
| 20260905071226 | 60 | 315 | 5.2 | 7.0 | 0.00 | 0.00 | 0.00 | 77 | 1021.5 |
| 20260905070720 | 60 | 308 | 4.3 | 6.1 | 0.00 | 0.00 | 0.00 | 78 | 1021.4 |
| 20260905070213 | 60 | 310 | 5.2 | 7.0 | 0.00 | 0.00 | 0.00 | 78 | 1021.3 |
| 20260905065707 | 59 | 316 | 4.3 | 6.1 | 0.00 | 0.00 | 0.00 | 78 | 1021.4 |
| 20260905065201 | 59 | 305 | 4.3 | 5.2 | 0.00 | 0.00 | 0.00 | 78 | 1021.3 |
| 20260905064656 | 59 | 310 | 5.2 | 8.7 | 0.00 | 0.00 | 0.00 | 78 | 1021.1 |
| 20260905064149 | 59 | 315 | 5.2 | 7.0 | 0.00 | 0.00 | 0.00 | 79 | 1021.0 |
| 20260905063642 | 59 | 302 | 3.5 | 6.1 | 0.00 | 0.00 | 0.00 | 80 | 1021.1 |
| 20260905063136 | 59 | 292 | 1.7 | 2.6 | 0.00 | 0.00 | 0.00 | 82 | 1021.1 |
| 20260905062631 | 58 | 250 | 1.7 | 2.6 | 0.00 | 0.00 | 0.00 | 82 | 1021.1 |
| 20260905062125 | 58 | 273 | 0.9 | 2.6 | 0.00 | 0.00 | 0.00 | 83 | 1021.2 |
| 20260905061619 | 57 | 286 | 0.9 | 1.7 | 0.00 | 0.00 | 0.00 | 83 | 1021.1 |
| 20260905061112 | 57 | 284 | 1.7 | 3.5 | 0.00 | 0.00 | 0.00 | 83 | 1021.1 |
| 20260905060606 | 57 | 268 | 0.9 | 1.7 | 0.00 | 0.00 | 0.00 | 83 | 1021.1 |
| 20260905060059 | 57 | 270 | 0.9 | 2.6 | 0.00 | 0.00 | 0.00 | 82 | 1021.0 |
| 20260905055554 | 57 | 265 | 1.7 | 2.6 | 0.00 | 0.00 | 0.00 | 82 | 1021.0 |
| 20260905055048 | 57 | 291 | 1.7 | 2.6 | 0.00 | 0.00 | 0.00 | 82 | 1020.9 |
| 20260905054541 | 57 | 282 | 1.7 | 4.3 | 0.00 | 0.00 | 0.00 | 82 | 1020.9 |
| 20260905054035 | 57 | 306 | 1.7 | 2.6 | 0.00 | 0.00 | 0.00 | 82 | 1020.8 |
| 20260905053023 | 57 | 289 | 2.6 | 3.5 | 0.00 | 0.00 | 0.00 | 82 | 1020.6 |
| 20260905052517 | 57 | 287 | 1.7 | 2.6 | 0.00 | 0.00 | 0.00 | 82 | 1020.5 |
| 20260905052011 | 56 | 282 | 2.6 | 4.3 | 0.00 | 0.00 | 0.00 | 82 | 1020.5 |
| 20260905051505 | 56 | 297 | 3.5 | 5.2 | 0.01 | 0.00 | 0.00 | 82 | 1020.4 |
| 20260905050959 | 56 | 286 | 1.7 | 2.6 | 0.01 | 0.00 | 0.00 | 83 | 1020.3 |
| 20260905050452 | 56 | 270 | 1.7 | 2.6 | 0.01 | 0.00 | 0.00 | 82 | 1020.1 |
| 20260905045946 | 56 | 269 | 0.9 | 1.7 | 0.01 | 0.00 | 0.00 | 82 | 1020.1 |
| 20260905045440 | 56 | 276 | 0.9 | 1.7 | 0.01 | 0.00 | 0.00 | 82 | 1020.0 |
| 20260905044934 | 56 | 241 | 0.9 | 1.7 | 0.01 | 0.00 | 0.00 | 82 | 1019.8 |
| 20260905044427 | 57 | 235 | 1.7 | 2.6 | 0.02 | 0.00 | 0.00 | 82 | 1019.6 |
| 20260905043921 | 57 | 227 | 0.9 | 2.6 | 0.03 | 0.00 | 0.00 | 83 | 1019.6 |
| 20260905043416 | 57 | 272 | 1.7 | 3.5 | 0.04 | 0.00 | 0.00 | 83 | 1019.8 |
| 20260905042910 | 57 | 311 | 2.6 | 3.5 | 0.04 | 0.00 | 0.00 | 83 | 1019.9 |
| 20260905042908 | 57 | 311 | 2.6 | 3.5 | 0.04 | 0.00 | 0.00 | 83 | 1019.9 |
| 20260905042403 | 57 | 310 | 2.6 | 4.3 | 0.05 | 0.00 | 0.00 | 83 | 1020.0 |
| 20260905041857 | 57 | 274 | 2.6 | 3.5 | 0.05 | 0.00 | 0.00 | 82 | 1019.7 |
| 20260905041333 | 57 | 250 | 1.7 | 2.6 | 0.05 | 0.00 | 0.00 | 81 | 1019.3 |
| 20260905040827 | 57 | 247 | 2.6 | 5.2 | 0.05 | 0.00 | 0.00 | 80 | 1019.1 |
| 20260905040322 | 57 | 254 | 1.7 | 2.6 | 0.06 | 0.00 | 0.00 | 79 | 1019.0 |
| 20260905035815 | 57 | 242 | 2.6 | 4.3 | 0.07 | 0.00 | 0.00 | 78 | 1019.0 |
| 20260905035309 | 58 | 241 | 2.6 | 4.3 | 0.07 | 0.00 | 0.00 | 79 | 1018.9 |
| 20260905034803 | 58 | 271 | 1.7 | 4.3 | 0.07 | 0.00 | 0.00 | 79 | 1019.4 |
| 20260905034243 | 59 | 268 | 1.7 | 5.2 | 0.06 | 0.00 | 0.00 | 78 | 1019.4 |
| 20260905033724 | 59 | 270 | 2.6 | 2.6 | 0.05 | 0.00 | 0.00 | 78 | 1019.3 |
| 20260905033211 | 59 | 272 | 2.6 | 5.2 | 0.04 | 0.00 | 0.00 | 76 | 1019.3 |
| 20260905032705 | 60 | 266 | 2.6 | 4.3 | 0.04 | 0.00 | 0.00 | 76 | 1019.5 |
| 20260905032142 | 61 | 254 | 2.6 | 3.5 | 0.03 | 0.00 | 0.00 | 76 | 1019.3 |
| 20260905031636 | 61 | 254 | 2.6 | 4.3 | 0.04 | 0.00 | 0.00 | 77 | 1019.5 |
| 20260905031123 | 62 | 291 | 1.7 | 2.6 | 0.04 | 0.00 | 0.00 | 78 | 1019.5 |
| 20260905030618 | 62 | 307 | 1.7 | 2.6 | 0.04 | 0.00 | 0.00 | 78 | 1019.5 |
| 20260905030104 | 62 | 307 | 0.9 | 1.7 | 0.03 | 0.00 | 0.00 | 78 | 1019.4 |
| 20260905025554 | 62 | 302 | 0.9 | 1.7 | 0.02 | 0.00 | 0.00 | 77 | 1019.2 |
| 20260905025047 | 62 | 301 | 0.9 | 1.7 | 0.02 | 0.00 | 0.00 | 76 | 1019.5 |
| 20260905024542 | 62 | 290 | 0.9 | 1.7 | 0.02 | 0.00 | 0.00 | 76 | 1019.0 |
| 20260905024035 | 62 | 270 | 0.9 | 1.7 | 0.02 | 0.00 | 0.00 | 75 | 1019.0 |